Location: ????????
(56.1167°N, 38.6333°E)
Time: 09:04:48
(UTC+00:00)

Cosmos 2221 Rocket - Pass Details

Date: 18 November 2025
Orbit: 614 x 643 km, 82.5° (Epoch: 14 December)

Event Time Altitude Azimuth Distance (km) Brightness Sun altitude
Rises 13:43:23 0° 347° (NNW) 2,951 6.9 -4.6°
Reaches altitude 10° 13:45:39 10° 346° (NNW) 2,033 6.1 -4.8°
Maximum altitude 13:50:10 82° 261° (W) 644 3.8 -5.4°
Drops below altitude 10° 13:54:36 10° 173° (S) 1,999 6.4 -6.0°
Sets 13:56:48 0° 173° (S) 2,896 7.3 -6.2°
